2024/02/11 00:00:00,25.3,-0.3
2024/02/11 00:10:00,24.9, 0.1
2024/02/11 00:20:00,24.7,-0.2
2024/02/11 00:30:00, 0.0,-0.3
2024/02/11 00:40:00,25.5,-0.0
2024/02/11 00:50:00,26.5, 0.4
2024/02/11 01:00:00,27.5, 0.1
2024/02/11 01:10:00,28.1, 0.1
2024/02/11 01:20:00,28.1, 0.1
2024/02/11 01:30:00,28.0, 0.2
2024/02/11 01:40:00,27.9, 0.3
2024/02/11 01:50:00,27.8,-0.1
2024/02/11 02:00:00,27.7,-0.1
2024/02/11 02:10:00,27.6,-0.1
2024/02/11 02:20:00,27.5, 0.1
2024/02/11 02:30:00,27.3, 0.2
2024/02/11 02:40:00,27.6, 0.2
2024/02/11 02:50:00,27.9,-0.2
2024/02/11 03:00:00,28.2, 0.1
2024/02/11 03:10:00,28.3, 0.2
2024/02/11 03:20:00,28.0,-0.1
2024/02/11 03:30:00,28.0, 0.1
2024/02/11 03:40:00,28.4, 0.4
2024/02/11 03:50:00,28.1, 0.2
2024/02/11 04:00:00,27.8,-0.0
2024/02/11 04:10:00,28.8,-0.1
2024/02/11 04:20:00,29.6,-0.0
2024/02/11 04:30:00,30.4, 0.1
2024/02/11 04:40:00,31.2, 0.1
2024/02/11 04:50:00,32.3,-0.2
2024/02/11 05:00:00,33.3, 0.3
2024/02/11 05:10:00,33.8,-0.5
2024/02/11 05:20:00,33.9, 0.2
2024/02/11 05:30:00,33.8, 0.6
2024/02/11 05:40:00,33.7, 0.1
2024/02/11 05:50:00,33.5, 0.4
2024/02/11 06:00:00,33.6,-0.1
2024/02/11 06:10:00,33.7, 0.4
2024/02/11 06:20:00,34.5, 0.2
2024/02/11 06:30:00,35.3, 0.1
2024/02/11 06:40:00,35.2,-0.0
2024/02/11 06:50:00,35.1,-0.0
2024/02/11 07:00:00,34.9,-0.0
2024/02/11 07:10:00,35.7, 0.2
2024/02/11 07:20:00,35.7, 0.2
2024/02/11 07:30:00,35.8, 0.3
2024/02/11 07:40:00,35.8, 0.3
2024/02/11 07:50:00,36.0, 0.4
2024/02/11 08:00:00,35.9, 0.4
2024/02/11 08:10:00,36.0, 0.8
2024/02/11 08:20:00,36.1, 0.3
2024/02/11 08:30:00,35.9, 0.8
2024/02/11 08:40:00,35.8, 0.6
2024/02/11 08:50:00,35.6, 1.4
2024/02/11 09:00:00,35.2, 1.3
2024/02/11 09:10:00,34.1, 1.1
2024/02/11 09:20:00,34.1, 2.2
2024/02/11 09:30:00,34.1, 4.3
2024/02/11 09:40:00,34.8, 4.0
2024/02/11 09:50:00,35.7, 4.5
2024/02/11 10:00:00,35.1, 3.6
2024/02/11 10:10:00,35.1, 4.5
2024/02/11 10:20:00,33.7, 4.6
2024/02/11 10:30:00,34.5, 6.1
2024/02/11 10:40:00,---, 7.8
2024/02/11 10:50:00,---, 9.1
2024/02/11 11:00:00,---, 9.7
2024/02/11 11:10:00,---, 8.2
2024/02/11 11:20:00,---,10.0
2024/02/11 11:30:00,---,11.0
2024/02/11 11:40:00, 0.0,13.2
2024/02/11 11:50:00,---,13.0
2024/02/11 12:00:00,34.0,13.7
2024/02/11 12:10:00,33.7,12.2
2024/02/11 12:20:00,32.5,12.6
2024/02/11 12:30:00,32.3,10.6
2024/02/11 12:40:00,32.5,11.2
2024/02/11 12:50:00,32.0, 9.1
2024/02/11 13:00:00,30.6, 7.8
2024/02/11 13:10:00,29.8, 8.5
2024/02/11 13:20:00,31.6, 9.3
2024/02/11 13:30:00,30.8, 6.3
2024/02/11 13:40:00,30.6, 6.2
2024/02/11 13:50:00,30.7, 6.3
2024/02/11 14:00:00,30.8, 6.9
2024/02/11 14:10:00,30.6, 6.9
2024/02/11 14:20:00,30.5, 5.9
2024/02/11 14:30:00,30.3, 6.6
2024/02/11 14:40:00,30.1, 7.2
2024/02/11 14:50:00,29.9, 6.5
2024/02/11 15:00:00,29.5, 5.1
2024/02/11 15:10:00,29.4, 4.4
2024/02/11 15:20:00,29.1, 4.5
2024/02/11 15:30:00,29.1, 5.1
2024/02/11 15:40:00,28.9, 4.5
2024/02/11 15:50:00,28.5, 4.0
2024/02/11 16:00:00,28.2, 3.6
2024/02/11 16:10:00,28.0, 2.8
2024/02/11 16:20:00,27.8, 1.7
2024/02/11 16:30:00,27.5, 1.9
2024/02/11 16:40:00,27.9, 1.4
2024/02/11 16:50:00,28.5, 1.4
2024/02/11 17:00:00,28.3, 0.8
2024/02/11 17:10:00,28.1, 1.1
2024/02/11 17:20:00,27.9, 1.1
2024/02/11 17:30:00,27.7, 1.2
2024/02/11 17:40:00,27.7, 1.0
2024/02/11 17:50:00, 3.1, 1.2
2024/02/11 18:00:00, 0.0, 1.0
2024/02/11 18:10:00, 0.0, 0.8
2024/02/11 18:20:00, 0.0, 1.1
2024/02/11 18:30:00, 0.0, 0.8
2024/02/11 18:40:00,28.3, 0.8
2024/02/11 18:50:00,28.1, 0.6
2024/02/11 19:00:00,27.6, 0.8
2024/02/11 19:10:00,---, 0.7
2024/02/11 19:20:00, 0.0, 0.8
2024/02/11 19:30:00, 0.0, 0.9
2024/02/11 19:40:00,27.0, 0.9
2024/02/11 19:50:00,26.9, 1.0
2024/02/11 20:00:00,27.4, 0.8
2024/02/11 20:10:00,27.6, 0.6
2024/02/11 20:20:00, 0.0, 0.6
2024/02/11 20:30:00, 0.0, 0.8
2024/02/11 20:40:00, 0.0, 0.8
2024/02/11 20:50:00, 0.0, 0.9
2024/02/11 21:00:00, 0.0, 0.8
2024/02/11 21:10:00, 0.0, 0.6
2024/02/11 21:20:00, 0.0, 0.7
2024/02/11 21:30:00, 0.0, 0.4
2024/02/11 21:40:00, 0.0, 0.5
2024/02/11 21:50:00, 0.0, 0.7
2024/02/11 22:00:00, 0.0, 1.0
2024/02/11 22:10:00,27.9, 0.6
2024/02/11 22:20:00,29.3, 0.6
2024/02/11 22:30:00,29.9, 0.7
2024/02/11 22:40:00,31.1, 0.7
2024/02/11 22:50:00,31.9, 0.5
2024/02/11 23:00:00,32.7, 0.3
2024/02/11 23:10:00,33.4, 0.6
2024/02/11 23:20:00,34.8, 0.2
2024/02/11 23:30:00,36.0, 0.2
2024/02/11 23:40:00,37.0, 0.2
2024/02/11 23:50:00,38.6,-0.0
